Location: Dimsdale
(55.1333°N, 118.9833°W)
Time: 22:05:00
(UTC+00:00)

SO-50 - Pass Details

Date: 10 December 2023
Orbit: 608 x 660 km, 64.6° (Epoch: 02 March)

Event Time Altitude Azimuth Distance (km) Brightness Sun altitude
Exits shadow 14:53:55 12° 314° (NW) 1,920 ? -9.9°
Maximum altitude 14:57:28 27° 10° (N) 1,233 ? -9.4°
Drops below altitude 10° 15:01:21 10° 69° (ENE) 2,011 ? -8.9°
Sets 15:03:55 0° 81° (E) 2,907 ? -8.6°
